Location: Andrest
(43.3200°N, 0.0641°E)
Time: 14:29:10
(UTC+00:00)

Cosmos 1238 Rocket - Pass Details

Date: 01 December 2020
Orbit: 375 x 1024 km, 83.0° (Epoch: 24 January)

Event Time Altitude Azimuth Distance (km) Brightness Sun altitude
Rises 18:57:35 0° 345° (NNW) 2,682 6.4 -27.1°
Reaches altitude 10° 18:59:36 10° 339° (NNW) 1,876 5.7 -27.4°
Maximum altitude 19:03:35 47° 266° (W) 855 4.0 -28.2°
Drops below altitude 10° 19:08:23 10° 193° (SSW) 2,255 6.1 -29.0°
Sets 19:11:00 0° 188° (S) 3,290 6.9 -29.5°
